Hourly Weather Bolshie Karnyshi

Today, 2 August, Monday

Time Temperature Precipitation Wind Pressure Humidity
00:00 +17°C° 0.2 mm 2 mps 730 mmHg 95%
01:00 +17°C° 0.2 mm 2 mps 729 mmHg 96%
02:00 +17°C° 0 mm 2 mps 728 mmHg 96%
03:00 +17°C° 1.1 mm 2 mps 727 mmHg 97%
04:00 +17°C° 1.1 mm 2 mps 726 mmHg 97%
05:00 +17°C° 1.1 mm 2 mps 725 mmHg 98%
06:00 +18°C° 0.8 mm 3 mps 725 mmHg 96%
07:00 +18°C° 0.8 mm 4 mps 724 mmHg 95%
08:00 +19°C° 0 mm 4 mps 724 mmHg 93%
09:00 +17°C° 1.8 mm 5 mps 725 mmHg 94%
10:00 +16°C° 1.8 mm 5 mps 726 mmHg 95%
11:00 +15°C° 1.8 mm 6 mps 726 mmHg 96%
12:00 +15°C° 0.2 mm 6 mps 727 mmHg 95%
13:00 +15°C° 0.2 mm 6 mps 728 mmHg 94%
14:00 +15°C° 0 mm 7 mps 729 mmHg 92%
15:00 +15°C° 0.4 mm 6 mps 730 mmHg 93%
16:00 +14°C° 0.4 mm 5 mps 730 mmHg 94%
17:00 +14°C° 0.4 mm 4 mps 731 mmHg 95%
18:00 +14°C° 0.2 mm 4 mps 731 mmHg 94%
19:00 +14°C° 0.2 mm 3 mps 731 mmHg 93%
20:00 +14°C° 0.2 mm 3 mps 732 mmHg 92%
21:00 +14°C° 0 mm 3 mps 732 mmHg 93%
22:00 +13°C° 0 mm 3 mps 732 mmHg 94%
23:00 +13°C° 0 mm 2 mps 732 mmHg 94%

Tomorrow, 3 August, Tuesday

Time Temperature Precipitation Wind Pressure Humidity
00:00 +12°C° 0 mm 3 mps 733 mmHg 94%
01:00 +12°C° 0 mm 3 mps 733 mmHg 94%
02:00 +11°C° 0 mm 3 mps 733 mmHg 93%
03:00 +11°C° 0 mm 3 mps 733 mmHg 94%
04:00 +11°C° 0 mm 3 mps 733 mmHg 94%
05:00 +11°C° 0 mm 3 mps 733 mmHg 95%
06:00 +12°C° 0 mm 3 mps 734 mmHg 90%
07:00 +13°C° 0 mm 4 mps 734 mmHg 85%
08:00 +14°C° 0 mm 4 mps 734 mmHg 80%
09:00 +16°C° 0 mm 5 mps 735 mmHg 72%
10:00 +17°C° 0 mm 5 mps 735 mmHg 65%
11:00 +20°C° 0 mm 6 mps 735 mmHg 58%
12:00 +20°C° 0 mm 6 mps 735 mmHg 56%
13:00 +20°C° 0 mm 6 mps 735 mmHg 54%
14:00 +21°C° 0 mm 6 mps 735 mmHg 53%
15:00 +20°C° 0.1 mm 5 mps 735 mmHg 57%
16:00 +20°C° 0.1 mm 5 mps 736 mmHg 61%
17:00 +19°C° 0.1 mm 4 mps 736 mmHg 65%
18:00 +18°C° 0 mm 3 mps 736 mmHg 70%
19:00 +17°C° 0 mm 3 mps 736 mmHg 75%
20:00 +16°C° 0 mm 2 mps 736 mmHg 79%
21:00 +15°C° 0 mm 2 mps 736 mmHg 82%
22:00 +14°C° 0 mm 2 mps 736 mmHg 85%
23:00 +13°C° 0 mm 1 mps 736 mmHg 88%

Day after tomorrow, 4 August, Wednesday

Time Temperature Precipitation Wind Pressure Humidity
00:00 +13°C° 0 mm 1 mps 737 mmHg 86%
01:00 +14°C° 0 mm 1 mps 737 mmHg 83%
02:00 +14°C° 0 mm 1 mps 737 mmHg 81%
03:00 +14°C° 0 mm 1 mps 737 mmHg 81%
04:00 +14°C° 0 mm 1 mps 737 mmHg 81%
05:00 +14°C° 0 mm 1 mps 737 mmHg 81%
06:00 +14°C° 0 mm 1 mps 737 mmHg 80%
07:00 +15°C° 0 mm 1 mps 737 mmHg 79%
08:00 +16°C° 0 mm 2 mps 738 mmHg 78%
09:00 +17°C° 0.1 mm 2 mps 738 mmHg 74%
10:00 +18°C° 0.1 mm 2 mps 738 mmHg 71%
11:00 +19°C° 0.1 mm 2 mps 738 mmHg 68%
12:00 +20°C° 0.3 mm 2 mps 738 mmHg 65%
13:00 +21°C° 0.3 mm 2 mps 738 mmHg 62%
14:00 +23°C° 0.3 mm 2 mps 738 mmHg 60%
15:00 +23°C° 0.1 mm 2 mps 737 mmHg 60%
16:00 +23°C° 0.1 mm 1 mps 737 mmHg 61%
17:00 +23°C° 0.1 mm 1 mps 737 mmHg 61%
18:00 +21°C° 0.8 mm 1 mps 736 mmHg 70%
19:00 +19°C° 0.8 mm 2 mps 736 mmHg 79%
20:00 +17°C° 0.8 mm 2 mps 736 mmHg 87%
21:00 +16°C° 2.1 mm 2 mps 736 mmHg 91%
22:00 +16°C° 2.1 mm 2 mps 736 mmHg 94%
23:00 +14°C° 2.1 mm 3 mps 736 mmHg 98%

5 August, Thursday

Time Temperature Precipitation Wind Pressure Humidity
00:00 +15°C° 0.5 mm 2 mps 736 mmHg 98%
01:00 +15°C° 0.5 mm 2 mps 736 mmHg 98%
02:00 +15°C° 0.5 mm 2 mps 735 mmHg 98%
03:00 +15°C° 0 mm 2 mps 735 mmHg 98%
04:00 +15°C° 0 mm 1 mps 735 mmHg 98%
05:00 +15°C° 0 mm 1 mps 735 mmHg 98%
06:00 +15°C° 0 mm 1 mps 735 mmHg 96%
07:00 +16°C° 0 mm 1 mps 735 mmHg 94%
08:00 +16°C° 0 mm 1 mps 735 mmHg 92%
09:00 +18°C° 0 mm 1 mps 735 mmHg 89%
10:00 +17°C° 0 mm 2 mps 735 mmHg 86%
11:00 +18°C° 0 mm 2 mps 735 mmHg 83%
12:00 +19°C° 0.1 mm 2 mps 735 mmHg 79%
13:00 +20°C° 0.1 mm 1 mps 735 mmHg 76%
14:00 +21°C° 0.1 mm 1 mps 735 mmHg 73%
15:00 +21°C° 0.2 mm 1 mps 735 mmHg 77%
16:00 +19°C° 0.2 mm 2 mps 734 mmHg 82%
17:00 +18°C° 0.2 mm 2 mps 734 mmHg 86%
18:00 +18°C° 0 mm 2 mps 734 mmHg 88%
19:00 +17°C° 0 mm 2 mps 734 mmHg 90%
20:00 +17°C° 0 mm 2 mps 734 mmHg 92%
21:00 +16°C° 0 mm 2 mps 733 mmHg 93%
22:00 +16°C° 0 mm 2 mps 733 mmHg 93%
23:00 +16°C° 0 mm 3 mps 733 mmHg 94%

6 August, Friday

Time Temperature Precipitation Wind Pressure Humidity
00:00 +16°C° 0 mm 3 mps 732 mmHg 95%
01:00 +16°C° 0 mm 3 mps 732 mmHg 95%
02:00 +14°C° 0 mm 4 mps 731 mmHg 96%
03:00 +14°C° 2.9 mm 4 mps 731 mmHg 97%
04:00 +14°C° 2.9 mm 5 mps 730 mmHg 97%
05:00 +14°C° 2.9 mm 6 mps 729 mmHg 98%
06:00 +15°C° 0.7 mm 6 mps 729 mmHg 97%
07:00 +15°C° 0.7 mm 6 mps 728 mmHg 97%
08:00 +16°C° 0.7 mm 6 mps 728 mmHg 96%
09:00 +17°C° 0 mm 6 mps 727 mmHg 91%
10:00 +20°C° 0 mm 6 mps 727 mmHg 86%
11:00 +22°C° 0 mm 6 mps 727 mmHg 81%
12:00 +22°C° 0.6 mm 6 mps 727 mmHg 80%
13:00 +22°C° 0.6 mm 7 mps 727 mmHg 80%
14:00 +22°C° 0.6 mm 7 mps 727 mmHg 80%
15:00 +21°C° 0.3 mm 7 mps 727 mmHg 81%
16:00 +20°C° 0.3 mm 8 mps 727 mmHg 83%
17:00 +17°C° 0.3 mm 8 mps 727 mmHg 84%
18:00 +17°C° 0 mm 7 mps 728 mmHg 84%
19:00 +16°C° 0 mm 7 mps 728 mmHg 85%
20:00 +15°C° 0 mm 6 mps 729 mmHg 85%
21:00 +14°C° 0 mm 5 mps 729 mmHg 86%
22:00 +14°C° 0 mm 5 mps 730 mmHg 86%
23:00 +14°C° 0 mm 4 mps 730 mmHg 87%

7 August, Saturday

Time Temperature Precipitation Wind Pressure Humidity
00:00 +14°C° 0 mm 4 mps 730 mmHg 87%
01:00 +13°C° 0 mm 4 mps 731 mmHg 87%
02:00 +13°C° 0 mm 4 mps 731 mmHg 87%
03:00 +13°C° 0 mm 4 mps 731 mmHg 88%
04:00 +13°C° 0 mm 4 mps 731 mmHg 89%
05:00 +13°C° 0 mm 4 mps 731 mmHg 90%
06:00 +13°C° 0 mm 4 mps 732 mmHg 87%
07:00 +14°C° 0 mm 5 mps 732 mmHg 84%
08:00 +15°C° 0 mm 5 mps 733 mmHg 80%
09:00 +16°C° 0 mm 5 mps 733 mmHg 74%
10:00 +19°C° 0 mm 5 mps 734 mmHg 68%
11:00 +20°C° 0 mm 5 mps 734 mmHg 62%
12:00 +21°C° 0 mm 5 mps 734 mmHg 59%
13:00 +21°C° 0 mm 5 mps 735 mmHg 55%
14:00 +22°C° 0 mm 4 mps 735 mmHg 52%
15:00 +22°C° 0 mm 4 mps 735 mmHg 54%
16:00 +22°C° 0 mm 3 mps 735 mmHg 56%
17:00 +22°C° 0 mm 3 mps 735 mmHg 57%
18:00 +21°C° 0 mm 2 mps 736 mmHg 64%
19:00 +19°C° 0 mm 2 mps 736 mmHg 70%
20:00 +18°C° 0 mm 1 mps 736 mmHg 77%
21:00 +17°C° 0 mm 2 mps 736 mmHg 78%
22:00 +16°C° 0 mm 2 mps 736 mmHg 79%
23:00 +16°C° 0 mm 2 mps 737 mmHg 80%
Show more

We Need Your Consent

Meteoprog and our Service Providers may store and access personal data such as cookies, device identifiers or other similar technologies on your device and process such data to personalise content and ads, as well as provide social media features and to analyse the traffic.

  • Store and/or access information on your device

    Cookies, device identifiers or other information can be stored or accessed on your device for the purposes indicated above.

  • Personalised ads and content, ad and content measurement, audience insights, and products development

    Ads and content can be personalised based on a profile. More data can be added to better personalise ads and content. Ad and content performance can be measured. Insights about the audience who saw the ads and content can be derived. Such data can be used to develop or improve user’s experience, systems and software.

By clicking ‘I Agree’ you will allow the use of indicated cookies, device identifiers, web beacons or other similar technologies. Your settings can be changed in the browser on your device.

For certain purposes, legitimate interests may be relied on, rather than consent. You can read more about this in our Privacy and Cookie Policy.